TimeAKST,TemperatureF,Dew PointF,Humidity,Sea Level PressureIn,VisibilityMPH,Wind Direction,Wind SpeedMPH,Gust SpeedMPH,PrecipitationIn,Events,Conditions,WindDirDegrees,DateUTC
12:16 AM,-13.0,-29.2,44,30.15,10.0,Calm,Calm,-,N/A,,Clear,0,2012-11-09 09:16:00
12:36 AM,-14.8,-9999,N/A,30.15,10.0,ENE,3.5,-,N/A,,Clear,70,2012-11-09 09:36:00
12:56 AM,-20.2,-9999,N/A,30.14,10.0,ENE,3.5,-,N/A,,Clear,60,2012-11-09 09:56:00
1:16 AM,-16.6,-22.0,76,30.13,10.0,NE,3.5,-,N/A,,Clear,50,2012-11-09 10:16:00
1:36 AM,-16.6,-9999,N/A,30.12,7.0,Calm,Calm,-,N/A,,Clear,0,2012-11-09 10:36:00
1:56 AM,-13.0,-9999,N/A,30.10,10.0,ENE,3.5,-,N/A,,Clear,60,2012-11-09 10:56:00
2:16 AM,-16.6,-9999,N/A,30.09,10.0,NE,4.6,-,N/A,,Clear,40,2012-11-09 11:16:00
2:36 AM,-16.6,-9999,N/A,30.08,10.0,NE,5.8,-,N/A,,Clear,50,2012-11-09 11:36:00
2:56 AM,-18.4,-9999,N/A,30.07,10.0,Calm,Calm,-,N/A,,Clear,0,2012-11-09 11:56:00
3:16 AM,-18.4,-9999,N/A,30.06,10.0,Calm,Calm,-,N/A,,Clear,0,2012-11-09 12:16:00
3:36 AM,-16.6,-9999,N/A,30.05,10.0,North,3.5,-,N/A,,Clear,350,2012-11-09 12:36:00
3:56 AM,-16.6,-9999,N/A,30.04,10.0,Calm,Calm,-,N/A,,Clear,0,2012-11-09 12:56:00
4:16 AM,-20.2,-9999,N/A,30.04,10.0,Calm,Calm,-,N/A,,Clear,0,2012-11-09 13:16:00
4:36 AM,-20.2,-9999,N/A,30.02,10.0,Calm,Calm,-,N/A,,Clear,0,2012-11-09 13:36:00
4:56 AM,-11.2,-20.2,64,30.02,10.0,Calm,Calm,-,N/A,,Clear,0,2012-11-09 13:56:00
5:16 AM,-14.8,-9999,N/A,30.00,10.0,Calm,Calm,-,N/A,,Clear,0,2012-11-09 14:16:00
5:36 AM,-22.0,-9999,N/A,29.99,10.0,Calm,Calm,-,N/A,,Clear,0,2012-11-09 14:36:00
5:56 AM,-16.6,-16.6,100,29.99,10.0,Calm,Calm,-,N/A,,Clear,0,2012-11-09 14:56:00
6:16 AM,-11.2,-9999,N/A,29.98,10.0,Calm,Calm,-,N/A,,Clear,0,2012-11-09 15:16:00
6:36 AM,-14.8,-9999,N/A,29.97,8.0,Calm,Calm,-,N/A,,Clear,0,2012-11-09 15:36:00
6:56 AM,-14.8,-16.6,92,29.96,10.0,Calm,Calm,-,N/A,,Clear,0,2012-11-09 15:56:00
7:16 AM,-18.4,-9999,N/A,29.96,10.0,NNE,4.6,-,N/A,,Clear,30,2012-11-09 16:16:00
7:36 AM,-20.2,-29.2,63,29.96,10.0,Calm,Calm,-,N/A,,Clear,0,2012-11-09 16:36:00
7:56 AM,-20.2,-9999,N/A,29.95,10.0,North,3.5,-,N/A,,Clear,360,2012-11-09 16:56:00
8:16 AM,-22.0,-29.2,69,29.94,9.0,Calm,Calm,-,N/A,,Clear,0,2012-11-09 17:16:00
8:36 AM,-20.2,-27.4,69,29.94,9.0,NNE,3.5,-,N/A,,Clear,20,2012-11-09 17:36:00
8:56 AM,-20.2,-9999,N/A,29.93,8.0,Calm,Calm,-,N/A,,Clear,0,2012-11-09 17:56:00
9:16 AM,-22.0,-9999,N/A,29.93,3.0,Calm,Calm,-,N/A,,Clear,0,2012-11-09 18:16:00
9:36 AM,-20.2,-20.2,100,29.92,10.0,NNE,3.5,-,N/A,,Clear,30,2012-11-09 18:36:00
9:56 AM,-23.8,-9999,N/A,29.91,10.0,Calm,Calm,-,N/A,,Clear,0,2012-11-09 18:56:00
10:16 AM,-22.0,-9999,N/A,29.91,10.0,Calm,Calm,-,N/A,,Clear,0,2012-11-09 19:16:00
10:36 AM,-23.8,-9999,N/A,29.91,10.0,Calm,Calm,-,N/A,,Clear,0,2012-11-09 19:36:00
10:56 AM,-20.2,-9999,N/A,29.90,1.5,Calm,Calm,-,N/A,,Clear,0,2012-11-09 19:56:00
11:16 AM,-20.2,-9999,N/A,29.90,7.0,Calm,Calm,-,N/A,,Clear,0,2012-11-09 20:16:00
11:36 AM,-20.2,-9999,N/A,29.90,10.0,Calm,Calm,-,N/A,,Clear,0,2012-11-09 20:36:00
11:56 AM,-18.4,-9999,N/A,29.89,10.0,Calm,Calm,-,N/A,,Clear,0,2012-11-09 20:56:00
12:16 PM,-16.6,-9999,N/A,29.88,10.0,Calm,Calm,-,N/A,,Clear,0,2012-11-09 21:16:00
12:36 PM,-16.6,-9999,N/A,29.87,10.0,Calm,Calm,-,N/A,,Clear,0,2012-11-09 21:36:00
12:56 PM,-16.6,-9999,N/A,29.87,10.0,Calm,Calm,-,N/A,,Clear,0,2012-11-09 21:56:00
1:16 PM,-14.8,-9999,N/A,29.87,10.0,Calm,Calm,-,N/A,,Clear,0,2012-11-09 22:16:00
1:36 PM,-16.6,-9999,N/A,29.86,10.0,Calm,Calm,-,N/A,,Clear,0,2012-11-09 22:36:00
1:56 PM,-14.8,-27.4,53,29.86,10.0,Calm,Calm,-,N/A,,Clear,0,2012-11-09 22:56:00
2:16 PM,-14.8,-27.4,53,29.86,10.0,Calm,Calm,-,N/A,,Clear,0,2012-11-09 23:16:00
2:36 PM,-14.8,-27.4,53,29.85,10.0,Calm,Calm,-,N/A,,Clear,0,2012-11-09 23:36:00
2:56 PM,-14.8,-23.8,64,29.84,10.0,Calm,Calm,-,N/A,,Clear,0,2012-11-09 23:56:00
3:16 PM,-16.6,-29.2,53,29.83,10.0,Calm,Calm,-,N/A,,Clear,0,2012-11-10 00:16:00
3:36 PM,-14.8,-20.2,77,29.82,10.0,Calm,Calm,-,N/A,,Clear,0,2012-11-10 00:36:00
3:56 PM,-16.6,-9999,N/A,29.82,10.0,ENE,3.5,-,N/A,,Clear,60,2012-11-10 00:56:00
4:16 PM,-16.6,-20.2,84,29.81,10.0,NE,3.5,-,N/A,,Clear,40,2012-11-10 01:16:00
4:36 PM,-16.6,-9999,N/A,29.81,10.0,North,4.6,-,N/A,,Clear,10,2012-11-10 01:36:00
4:56 PM,-18.4,-23.8,76,29.81,10.0,Calm,Calm,-,N/A,,Clear,0,2012-11-10 01:56:00
5:16 PM,-18.4,-9999,N/A,29.80,10.0,Calm,Calm,-,N/A,,Clear,0,2012-11-10 02:16:00
5:36 PM,-18.4,-9999,N/A,29.80,10.0,Calm,Calm,-,N/A,,Clear,0,2012-11-10 02:36:00
5:56 PM,-18.4,-9999,N/A,29.79,10.0,Calm,Calm,-,N/A,,Clear,0,2012-11-10 02:56:00
6:16 PM,-18.4,-9999,N/A,29.79,9.0,Calm,Calm,-,N/A,,Clear,0,2012-11-10 03:16:00
6:36 PM,-18.4,-9999,N/A,29.79,10.0,Calm,Calm,-,N/A,,Clear,0,2012-11-10 03:36:00
6:56 PM,-18.4,-9999,N/A,29.78,10.0,Calm,Calm,-,N/A,,Clear,0,2012-11-10 03:56:00
7:16 PM,-20.2,-9999,N/A,29.77,10.0,Calm,Calm,-,N/A,,Clear,0,2012-11-10 04:16:00
7:36 PM,-20.2,-9999,N/A,29.77,10.0,Calm,Calm,-,N/A,,Clear,0,2012-11-10 04:36:00
7:56 PM,-20.2,-9999,N/A,29.77,10.0,Calm,Calm,-,N/A,,Clear,0,2012-11-10 04:56:00
8:16 PM,-22.0,-9999,N/A,29.76,10.0,Calm,Calm,-,N/A,,Clear,0,2012-11-10 05:16:00
8:36 PM,-23.8,-9999,N/A,29.76,10.0,Calm,Calm,-,N/A,,Clear,0,2012-11-10 05:36:00
8:56 PM,-22.0,-9999,N/A,29.76,10.0,Calm,Calm,-,N/A,,Clear,0,2012-11-10 05:56:00
9:16 PM,-23.8,-9999,N/A,29.76,10.0,Calm,Calm,-,N/A,,Clear,0,2012-11-10 06:16:00
9:36 PM,-23.8,-9999,N/A,29.76,10.0,Calm,Calm,-,N/A,,Clear,0,2012-11-10 06:36:00
9:56 PM,-23.8,-9999,N/A,29.75,10.0,Calm,Calm,-,N/A,,Clear,0,2012-11-10 06:56:00
10:16 PM,-20.2,-27.4,69,29.75,10.0,Calm,Calm,-,N/A,,Clear,0,2012-11-10 07:16:00
10:36 PM,-20.2,-9999,N/A,29.74,9.0,Calm,Calm,-,N/A,,Clear,0,2012-11-10 07:36:00
10:56 PM,-22.0,-9999,N/A,29.73,7.0,Calm,Calm,-,N/A,,Clear,0,2012-11-10 07:56:00
11:16 PM,-25.6,-9999,N/A,29.73,9.0,Calm,Calm,-,N/A,,Clear,0,2012-11-10 08:16:00
11:36 PM,-22.0,-9999,N/A,29.73,10.0,Calm,Calm,-,N/A,,Clear,0,2012-11-10 08:36:00
11:56 PM,-23.8,-9999,N/A,29.72,8.0,Calm,Calm,-,N/A,,Clear,0,2012-11-10 08:56:00